Location: Pinawa
(50.1500°N, 95.8830°W)
Time: 03:29:58
(UTC-05:00)

Daily predictions for brighter satellites

Satellite Brightness Start Highest point End
(mag) Time Altitude Azimuth Time Altitude Azimuth Time Altitude Azimuth
COSMOS 2428 4.3 00:07:05 21° ENE 00:07:05 21° ENE 00:09:44 10° NE
Cosmos 1812 Rocket 4.2 00:06:49 51° NW 00:06:49 51° NW 00:10:44 10° N
Cosmos 1092 Rocket 4.4 00:02:58 10° N 00:09:09 50° ENE 00:09:47 48° E
GEOS 3 Rocket 3.9 00:04:20 10° NE 00:09:25 64° NW 00:11:27 36° WSW
CZ-4B R/B 3.8 00:19:56 21° NNE 00:19:56 21° NNE 00:21:32 10° N
Cosmos 1464 Rocket 4.0 00:19:32 67° SSW 00:20:25 81° W 00:26:50 10° N
Cosmos 2278 Rocket 3.3 00:17:33 10° NNW 00:22:45 35° NE 00:23:57 32° ENE
Cosmos 1513 Rocket 4.3 00:24:24 79° S 00:24:51 89° WNW 00:31:09 10° N
Meteor 1-22 Rocket 4.1 00:27:22 89° WSW 00:27:23 89° W 00:33:06 10° NNE
Cosmos 1538 Rocket 4.2 00:29:43 67° NE 00:29:43 67° NE 00:34:26 10° NNE
Nadezhda 4 Rocket 3.8 00:28:58 10° N 00:35:20 86° W 00:35:42 80° SSW
Lacrosse 4 Rocket 3.6 00:41:00 21° NE 00:41:00 21° NE 00:42:37 10° NE
SL-16 R/B 3.0 00:39:10 36° W 00:40:55 47° NW 00:46:25 10° NNE
Cosmos 1844 3.8 00:41:00 10° NNW 00:46:39 68° NE 00:46:39 68° NE
Cosmos 1844 Rocket 2.7 00:47:03 10° NNW 00:52:09 74° NNW 00:52:09 74° NNW
ALOS 2 3.6 00:54:28 43° NNW 00:54:28 43° NNW 00:57:30 10° NNW
ATLAS 3B R/B 4.2 00:54:42 24° E 00:54:42 24° E 00:59:26 10° ENE
Cosmos 773 Rocket 4.4 00:56:43 61° NNE 00:56:43 61° NNE 01:01:06 10° NNE
CZ-2C R/B 3.7 00:52:36 10° NNE 00:56:55 37° ENE 00:56:55 37° ENE
Cosmos 2360 Rocket 2.2 00:58:48 74° NW 00:58:48 74° NW 01:04:20 10° NNE
Cosmos 2026 Rocket 4.0 00:55:48 10° N 01:01:58 67° ENE 01:02:02 67° E
CZ-2C R/B 3.7 01:04:03 44° NE 01:04:03 44° NE 01:08:15 10° N
Cosmos 1953 4.0 01:08:21 33° N 01:08:21 33° N 01:10:42 10° N
Cosmos 1624 Rocket 4.4 01:03:12 10° NNW 01:08:01 60° NNE 01:08:01 60° NNE
Cosmos-2242 4.3 01:12:09 38° N 01:12:09 38° N 01:14:53 10° N
H-2A R/B 4.0 01:08:09 10° NNE 01:10:29 32° NNE 01:10:29 32° NNE
COSMOS 2455 4.1 01:15:10 29° E 01:15:10 29° E 01:19:01 10° NE
Cosmos 2195 Rocket 4.3 01:11:43 10° N 01:17:50 86° WNW 01:17:50 86° WNW
Cosmos 2219 Rocket 3.0 01:21:35 41° ENE 01:21:35 41° ENE 01:25:46 10° NE
Cosmos 2142 Rocket 4.4 01:21:52 85° E 01:21:52 85° E 01:28:09 10° N
Cosmos 2263 Rocket 4.3 01:19:32 10° WNW 01:21:38 14° W 01:21:38 14° W
Cosmos 1655 Rocket 3.9 01:18:25 10° N 01:24:50 88° ENE 01:24:55 87° SE
Cosmos 1428 Rocket 4.5 01:21:31 10° N 01:27:38 69° ENE 01:27:44 69° E
Cosmos 2322 4.3 01:29:05 49° WNW 01:29:38 50° NW 01:35:13 10° NNE
Cosmos 2112 Rocket 4.4 01:30:58 62° NNE 01:30:58 62° NNE 01:35:25 10° NNE
Cosmos 2322 Rocket 4.1 01:26:55 14° W 01:30:25 25° NW 01:35:00 10° NNE
SL-16 R/B 4.0 01:32:46 19° E 01:32:46 19° E 01:35:56 10° NE
Cosmos 2333 4.3 01:33:08 72° NE 01:33:08 72° NE 01:38:21 10° NNE
Cosmos 2333 Rocket 3.0 01:33:47 42° E 01:33:47 42° E 01:38:19 10° NE
Cosmos 2297 4.1 01:27:57 10° NNW 01:33:37 55° NE 01:34:03 54° ENE
Cosmos 1452 Rocket 4.2 01:29:51 10° NNW 01:34:58 46° ENE 01:35:07 46° ENE
Cosmos 2237 Rocket 3.1 01:37:53 40° E 01:37:53 40° E 01:42:17 10° NE
NOSS 0 Rocket 4.3 01:40:19 50° E 01:40:19 50° E 01:45:41 10° NE
Cosmos 1980 4.4 01:42:14 45° E 01:42:14 45° E 01:46:44 10° NE
Meteor 2-20 4.4 01:37:53 10° N 01:44:04 78° ENE 01:44:11 78° E
Cosmos 2058 4.4 01:41:38 10° N 01:44:09 35° N 01:44:09 35° N
Cosmos 1680 Rocket 3.9 01:46:34 61° NNW 01:46:34 61° NNW 01:51:22 10° NNE
Helios 1A Rocket 4.4 01:44:37 10° NNE 01:47:01 35° NNE 01:47:01 35° NNE
COSMOS 2428 2.9 01:49:05 65° NW 01:49:05 65° NW 01:54:44 10° NNE
CZ-4B R/B 4.5 01:53:40 12° NW 01:53:40 12° NW 01:54:07 10° NW
Cosmos 1818 3.8 01:53:58 10° NW 01:58:44 67° NNW 01:58:44 67° NNW
Cosmos 1634 Rocket 4.4 01:59:36 51° W 02:00:02 52° WNW 02:06:13 10° N
CZ-4C R/B 4.0 02:01:20 19° E 02:01:20 19° E 02:04:36 10° ENE
Meteor 1-16 Rocket 4.2 02:01:34 73° ENE 02:01:34 73° ENE 02:06:43 10° NNE
Cosmos 2278 Rocket 2.9 02:01:35 10° NW 02:05:46 43° WNW 02:05:46 43° WNW
Cosmos 292 Rocket 4.3 02:09:31 55° NNE 02:09:31 55° NNE 02:13:17 10° NNE
Cosmos 2228 Rocket 4.4 02:12:56 36° ENE 02:12:56 36° ENE 02:16:27 10° NNE
Lacrosse 4 Rocket 3.1 02:17:20 30° NW 02:17:20 30° NW 02:21:15 10° NNE
Cosmos 2279 Rocket 4.1 02:18:24 61° W 02:18:42 62° WNW 02:24:51 10° N
SL-16 R/B 4.4 02:22:15 10° ESE 02:27:11 26° NE 02:32:09 10° N
Cosmos 1420 Rocket 4.1 02:24:24 10° NNW 02:29:36 69° ENE 02:29:40 69° ENE
Cosmos 2266 Rocket 3.9 02:29:56 10° NNW 02:36:16 71° W 02:36:41 69° WSW
CZ-2C R/B 3.5 02:32:58 10° N 02:38:04 39° WNW 02:38:26 39° WNW
Cosmos 1633 Rocket 4.1 02:35:50 10° NNW 02:38:50 40° NW 02:38:50 40° NW
ATLAS CENTAUR R/B 3.1 02:36:08 10° NNW 02:40:21 34° NE 02:43:56 12° E
ATLAS 3B R/B 2.8 02:41:56 59° SW 02:43:37 87° SE 02:51:02 10° NE
Cosmos 2360 Rocket 4.3 02:40:33 14° WNW 02:43:38 20° NW 02:47:47 10° N
Cosmos 1933 Rocket 4.1 02:43:51 10° N 02:47:27 58° N 02:47:27 58° N
Exosat Rocket 3.5 02:45:10 10° NNW 02:50:02 76° W 02:50:02 76° W
Cosmos 2221 3.8 02:52:17 33° NW 02:52:17 33° NW 02:55:30 10° N
Cosmos 2369 Rocket 3.5 02:46:12 10° NNW 02:51:26 38° NE 02:56:39 10° ESE
Sich 1 4.4 02:48:11 10° NNW 02:50:55 31° NW 02:50:55 31° NW
Cosmos 1470 Rocket 4.1 02:49:03 10° N 02:52:36 56° NNW 02:52:36 56° NNW
Cosmos 1437 Rocket 3.8 02:57:55 43° NNW 02:57:55 43° NNW 03:00:57 10° N
NPP 4.1 02:53:50 10° NNE 02:59:07 51° E 02:59:56 47° SE
COSMOS 2455 3.1 02:58:19 52° W 02:59:25 60° NW 03:05:25 10° NNE
Cosmos 2219 Rocket 3.1 03:03:18 33° WNW 03:04:30 36° NW 03:09:42 10° NNE
PSLV R/B 3.8 03:02:31 10° N 03:07:09 71° WNW 03:07:09 71° WNW
Cosmos 1867 3.6 03:08:52 62° SSE 03:09:14 64° SE 03:14:41 10° NE
BREEZE-M DEB (TANK) 4.2 03:12:18 35° ESE 03:12:18 35° ESE 03:15:18 10° ESE
ARIANE 5 R/B 4.2 03:08:53 10° NE 03:13:22 28° E 03:15:40 20° SE
Cosmos 1271 Rocket 4.2 03:13:52 31° E 03:14:09 31° E 03:17:43 10° NNE
Cosmos 1269 Rocket 4.0 03:13:58 65° SSE 03:14:32 71° ESE 03:19:50 10° NNE
SL-16 R/B 2.1 03:14:39 66° SW 03:15:27 81° WNW 03:21:12 10° NNE
Cosmos 2333 Rocket 3.1 03:15:47 34° W 03:17:13 39° NW 03:22:38 10° NNE
Cosmos 1607 3.8 03:16:53 59° SSW 03:18:05 78° SE 03:24:16 10° NE
Cosmos 1943 Rocket 4.0 03:13:07 10° NNW 03:18:08 30° NE 03:23:06 10° ESE
Cosmos 1340 Rocket 3.2 03:14:46 10° N 03:18:44 58° ENE 03:18:44 58° ENE
Cosmos 1626 4.1 03:15:30 10° NNW 03:17:07 22° NW 03:17:07 22° NW
Resurs 1-4 Rocket 3.8 03:16:19 10° NE 03:20:42 26° E 03:23:37 16° SE
Cosmos 2237 Rocket 3.0 03:19:43 35° W 03:21:03 40° NW 03:26:26 10° NNE
BREEZE-M DEB (TANK) 2.7 03:21:54 74° SSE 03:21:55 74° SSE 03:26:35 10° ENE
Meteor 1-4 Rocket 3.7 03:22:46 39° ENE 03:22:46 39° ENE 03:25:34 10° NNE
Cosmos 468 4.4 03:23:05 68° SW 03:23:43 81° WNW 03:29:03 10° NNE
Meteor 2-2 Rocket 4.3 03:23:29 55° S 03:24:54 88° E 03:30:51 10° NNE
Cosmos 1151 Rocket 2.9 03:26:00 83° ESE 03:26:03 83° E 03:30:27 10° NNE
ERBS 3.8 03:31:28 33° E 03:31:28 33° E 03:33:46 10° ENE
USA 234 4.1 03:24:40 10° ENE 03:30:39 37° SE 03:32:36 31° SSE
USA 238 DEB 3.7 03:32:15 46° SW 03:34:40 90° S 03:41:47 10° NE
USA 238 3.7 03:32:21 46° SW 03:34:46 89° SE 03:41:53 10° NE
ERS-2 3.4 03:31:42 10° NNE 03:35:09 34° E 03:35:33 33° ESE
SeaSat 1 3.8 03:30:37 10° ESE 03:35:12 40° NE 03:39:48 10° NNW
Okean O Rocket 4.4 03:35:52 10° ENE 03:37:23 12° E 03:38:55 10° ESE
Aureole 2 Rocket 3.5 03:37:44 44° NW 03:37:44 44° NW 03:41:43 10° NNE
BREEZE-M DEB (TANK) 4.2 03:27:39 10° WNW 03:37:30 44° WSW 03:37:30 44° WSW
Cosmos 158 Rocket 4.2 03:38:59 44° SSE 03:40:16 58° ESE 03:45:10 10° NNE
TELKOM 3 4.3 03:40:18 81° W 03:40:30 89° S 03:46:23 10° E
Cosmos 1908 4.0 03:42:02 42° NW 03:42:02 42° NW 03:45:19 10° N
SL-24 R/B 4.2 03:41:05 54° SSE 03:42:07 88° ENE 03:47:01 10° NNW
Cosmos 1328 Rocket 4.5 03:42:40 34° WNW 03:42:40 34° WNW 03:46:26 10° N
USA 161 4.3 03:45:48 11° N 03:45:48 11° N 03:45:57 10° N
BREEZE-M DEB (TANK) 3.6 03:43:47 37° SSW 03:46:26 56° SSE 03:50:05 10° ENE
CZ-4C R/B 2.2 03:46:31 49° SW 03:48:09 89° NNW 03:54:26 10° NE
Cosmos 1110 Rocket 3.8 03:44:03 10° NNW 03:49:17 82° WSW 03:51:45 32° SSE
SL-08 R/B 3.9 03:49:50 38° W 03:49:50 38° W 03:53:45 10° NNW
Cosmos 2228 Rocket 4.4 03:50:26 27° WNW 03:50:30 27° WNW 03:54:26 10° N
NOSS 3-2 (A) 3.8 03:48:28 37° S 03:50:50 58° SE 03:57:28 10° NE
Cosmos 2251 Rocket 4.2 03:48:47 31° SSE 03:50:55 48° ESE 03:55:58 10° NNE
EO 1 Del DPAF 4.3 03:50:48 19° SE 03:53:16 46° ENE 03:57:02 10° N
ATLAS 5 CENTAUR R/B 4.0 03:51:30 12° SE 03:54:05 18° ESE 03:57:27 10° ENE
CBERS-1 4.0 03:50:15 10° N 03:55:20 66° WNW 03:56:39 47° SW
NOSS 3-3 (A) 4.4 03:49:11 10° NW 03:56:24 61° SW 04:04:07 10° SSE
NOSS 3-3 (C) 4.4 03:49:16 10° NW 03:56:30 61° SW 04:04:13 10° SSE
Lacrosse 4 Rocket 4.4 03:56:26 10° NNW 03:57:27 11° NNW 03:58:30 10° N
Cosmos 1603 3.6 03:56:00 43° SSW 03:57:58 89° ESE 04:03:46 10° NNE
In-Cosmos 22 Rocket 4.0 03:54:53 10° NNW 04:00:12 75° W 04:02:31 35° S
IRS-1C 4.1 04:00:35 10° N 04:05:55 68° WNW 04:07:49 40° SW
Cosmos 1892 3.1 04:02:58 10° N 04:06:50 61° ENE 04:08:51 25° SSE
NOSS 3-2 (C) 3.8 04:04:09 32° SSW 04:07:05 60° SE 04:13:46 10° NE
Meteor 2-3 Rocket 3.7 04:01:34 10° NNW 04:07:21 78° W 04:11:03 23° S
AQUA 4.2 04:04:28 10° N 04:09:05 49° WNW 04:10:15 40° WSW
Cosmos 1869 Rocket 3.7 04:05:30 10° NNW 04:09:50 54° W 04:10:32 48° SW
SL-16 R/B 2.4 04:05:49 20° S 04:10:17 74° WSW 04:16:31 10° NNW
S3M 4.1 04:07:52 35° SW 04:10:26 61° WNW 04:16:44 10° N
CENTAUR R/B 4.5 04:06:26 10° SSE 04:10:54 21° ESE 04:15:43 10° ENE
Cosmos 1356 Rocket 3.3 04:07:04 10° NNW 04:11:05 59° W 04:11:31 55° SW
ERS-1 4.3 04:06:13 10° NNE 04:11:13 84° WNW 04:13:14 37° SSW
Cosmos 2242 Rocket 4.0 04:14:02 24° SSE 04:16:38 62° E 04:21:10 10° NNE
Abrixas rocket 2.2 04:17:14 63° SSE 04:17:14 63° SSE 04:20:27 10° E
ATLAS CENTAUR R/B 1.6 04:15:18 10° NW 04:19:36 46° WSW 04:20:00 45° SW
Coronas F rocket 3.0 04:20:03 10° NNW 04:21:24 25° NW 04:21:24 25° NW
CZ-2D R/B 2.1 04:18:03 10° NNE 04:23:23 78° ESE 04:26:43 23° S
Cosmos 1726 2.3 04:24:53 46° WSW 04:25:28 52° WNW 04:29:09 10° N
MTI 4.1 04:25:02 20° SSE 04:27:13 70° ENE 04:30:34 10° N
Cosmos 1943 3.3 04:25:33 25° SSW 04:28:54 73° ESE 04:34:33 10° NNE
MOZ.5/SAFIR/RUBIN 5/SL-8 4.4 04:25:03 10° SSE 04:29:35 57° ENE 04:34:09 10° N
Cosmos 1300 3.3 04:29:20 37° W 04:29:56 40° WNW 04:33:36 10° N
Cosmos 1553 Rocket 4.4 04:28:02 28° SW 04:30:46 44° WNW 04:36:36 10° N
Cosmos 1709 Rocket 4.0 04:25:02 10° NNW 04:31:25 75° W 04:37:41 10° S
UNK 4.0 04:30:56 30° SSW 04:32:48 48° W 04:37:17 10° NNW
Cosmos 494 Rocket 4.1 04:30:01 25° SSW 04:33:09 79° ESE 04:38:27 10° NNE
Cosmos 546 4.5 04:32:20 30° W 04:34:06 72° SSW 04:37:56 10° ESE
ATLAS 3B R/B 3.9 04:29:11 14° W 04:35:10 38° NNW 04:41:52 10° NE
Cosmos 2369 Rocket 2.4 04:30:16 10° NW 04:35:35 45° WSW 04:40:54 10° S
CZ-4B R/B 4.5 04:34:33 10° NNE 04:39:28 37° E 04:44:20 10° SSE
Cosmos 1302 Rocket 4.0 04:34:46 10° NNW 04:39:57 59° WSW 04:45:04 10° S
Spot 4 Rocket 4.4 04:35:49 10° N 04:40:46 47° WNW 04:43:21 26° SW
IRS-1D 3.6 04:36:03 10° N 04:41:11 65° WNW 04:44:24 23° SSW
Cosmos 1455 2.4 04:40:22 19° S 04:43:03 72° E 04:46:58 10° NNE
ADEOS 4.2 04:41:20 10° N 04:46:12 40° WNW 04:48:52 23° WSW
Cosmos 389 Rocket 3.7 04:45:46 10° SSE 04:49:04 40° E 04:52:24 10° NNE
Cosmos 1733 Rocket 3.0 04:44:46 10° NNW 04:49:08 73° W 04:53:31 10° S
Cosmos 1271 Rocket 4.0 04:49:06 23° W 04:50:13 27° WNW 04:53:42 10° N
ARIANE 5 R/B 2.9 04:47:40 10° N 04:52:44 50° WNW 04:56:01 21° SW
Cosmos 2074 Rocket 4.2 04:46:56 10° N 04:53:11 77° E 04:59:25 10° SSE
Cosmos 2184 Rocket 4.2 04:49:40 10° N 04:56:06 78° E 05:02:29 10° SSE
Cosmos 1707 Rocket 4.4 04:54:15 24° WSW 04:56:12 35° WNW 05:00:20 10° N
Meteor 1-4 Rocket 4.4 04:57:08 15° WNW 04:57:41 16° WNW 04:59:55 10° NNW
Cosmos 1184 Rocket 2.8 04:56:10 10° NNW 04:59:34 62° W 05:02:57 10° S
SL-16 R/B 3.9 04:56:32 11° W 05:00:30 21° NW 05:04:48 10° NNE
Resurs 1-4 Rocket 2.3 04:55:43 10° N 05:00:51 54° WNW 05:04:42 18° SW
Cosmos 1943 Rocket 2.2 04:56:41 10° NW 05:02:18 62° WSW 05:07:51 10° SSE
Cosmos 2333 Rocket 4.5 05:00:29 10° NW 05:03:15 13° NNW 05:06:01 10° N
Cosmos 2237 Rocket 4.4 05:04:03 10° NW 05:06:48 13° NNW 05:09:32 10° N
ERBS 3.3 05:04:54 17° W 05:07:14 41° NNW 05:10:37 10° NE
ERS-2 3.6 05:05:47 10° N 05:08:47 23° WNW 05:10:23 18° W
SeaSat 1 2.8 05:08:06 10° S 05:12:43 40° WSW 05:17:23 10° NW
USA 234 3.3 05:07:32 10° ENE 05:14:07 87° NNW 05:19:56 14° WSW
Okean O Rocket 1.7 05:09:57 10° NNE 05:14:27 87° E 05:18:56 10° SSW
Cosmos 1408 2.6 05:11:26 10° N 05:15:12 87° ENE 05:18:57 10° S
Cosmos 1825 2.1 05:12:48 10° N 05:16:38 89° WSW 05:20:25 10° S
ADEOS II 3.6 05:12:03 10° NNE 05:16:54 36° E 05:21:42 10° SSE
Cosmos 1908 Rocket 3.5 05:12:30 10° NNW 05:16:56 81° W 05:21:17 10° S
Okean-O 4.3 05:13:34 10° NNE 05:17:40 35° E 05:21:43 10° SSE
Cosmos 1862 3.2 05:14:45 10° NNW 05:18:46 79° W 05:22:43 10° S
Cosmos 2221 Rocket 4.5 05:16:19 10° S 05:20:36 50° E 05:24:54 10° NNE
Pageos (A) 3.2 05:19:18 10° NNW 05:21:31 43° W 05:23:17 13° SSW
UNKNOWN OBJECT B 3.5 05:21:10 10° N 05:24:31 33° WNW 05:27:12 14° SW
USA 129 2.0 05:23:54 10° SSE 05:25:06 40° ENE 05:26:29 10° N
CZ-2D R/B 3.9 05:20:56 10° N 05:25:13 48° WNW 05:29:17 11° SW
Cosmos 2285 Rocket 4.0 05:19:09 10° NNW 05:25:35 71° WSW 05:31:56 10° SSE
CZ-4B R/B 2.7 05:23:53 10° NNE 05:27:32 84° ESE 05:31:16 10° SSW
Thor Agena Rocket 3.5 05:22:41 10° S 05:27:49 71° WSW 05:33:04 10° NNW
Sich 1 Rocket 3.8 05:25:37 10° NNW 05:29:52 49° W 05:34:06 10° SSW
Cosmos 2315 Rocket 4.5 05:24:16 11° SW 05:30:02 43° WNW 05:36:02 10° N
Cosmos 1869 3.8 05:31:16 10° SW 05:35:02 41° WNW 05:38:51 10° N
IRS-1C Rocket 4.2 05:30:16 10° N 05:35:31 66° WNW 05:40:44 10° SSW
Cosmos 1656 Rocket 3.6 05:30:17 10° NNW 05:35:41 68° WSW 05:41:03 10° SSE
SL-08 ROCKET BODY 4.5 05:30:04 10° NNW 05:35:57 60° W 05:41:55 10° S
Cosmos 1992 Rocket 4.0 05:31:25 10° NNW 05:36:35 60° WSW 05:41:43 10° S
CZ-4C R/B 3.6 05:32:17 10° W 05:37:30 33° NNW 05:43:22 10° NE
ATLAS 5 CENTAUR R/B 2.0 05:33:05 10° SW 05:37:58 88° NW 05:43:25 10° NE
SL-27 R/B 2.6 05:34:51 10° SSW 05:38:30 86° ESE 05:42:10 10° NNE
Cosmos 1933 3.3 05:34:33 10° SSW 05:38:40 77° WNW 05:42:48 10° N
Cosmos 1703 Rocket 3.7 05:34:44 10° S 05:39:12 85° E 05:43:44 10° N
USA 32 4.1 05:34:08 10° S 05:39:22 90° E 05:44:40 10° N
NOSS 3-2 (A) 4.3 05:35:53 10° WSW 05:41:58 46° NNW 05:48:42 10° NE
ADEOS Rocket 3.8 05:45:16 10° NNE 05:52:58 81° ESE 06:00:46 10° SSW
Abrixas rocket 2.6 05:50:47 10° W 05:54:01 48° SSW 05:57:16 10° ESE
SL-16 R/B 4.1 05:51:58 10° WSW 05:55:01 14° W 05:58:06 10° NW
PSLV R/B 3.6 05:52:30 10° NNE 05:56:55 90° SW 06:01:18 10° SSW
NOSS 3-2 (C) 4.3 05:52:13 10° WSW 05:58:19 45° NNW 06:05:04 10° NE
Aureole 3 Rocket 3.8 05:51:34 10° SSW 05:58:23 80° W 06:03:10 10° N
CENTAUR R/B 2.7 05:54:12 10° SW 06:00:29 87° SE 06:07:41 10° NE
Cosmos 2278 4.4 05:54:53 10° NNW 06:00:36 63° ENE 06:06:16 10° SE
